Wind_Speed
20 22 24 24 25 26 26 25 26 25 24 23 22 21 19 18 17 17 17 16 16 16 16 15 15 14 13 13 12 12 12 12 11 9 8 7 7 5 5 4 4 4 4 3 3 2 0 3 4 5 4 3 3 2 2 2 2 2 1 1 1 2 3 3 4 3 3 3 4 4 5 5 5 5 5 6 6 6 8 10 12 14 14 14 16
18 21 23 24 24 25 25 25 25 26 25 24 24 23 20 18 18 18 18 18 17 17 17 16 16 15 14 14 15 14 14 13 11 10 9 8 7 6 5 5 4 4 3 3 4 4 3 1 1 2 2 2 2 2 2 2 1 1 1 1 2 2 3 3 3 3 3 3 3 3 3 3 3 4 4 5 5 6 8 11 13 14 14 15 17
16 19 22 23 24 24 25 25 24 25 24 24 25 24 22 20 18 18 19 19 18 18 18 17 16 15 15 16 16 16 15 14 12 11 10 8 7 6 5 4 3 3 3 2 3 3 3 2 1 1 0 0 1 1 1 1 1 1 2 2 2 3 3 3 4 4 3 3 3 2 2 1 2 3 4 4 5 6 8 11 13 14 16 17 19
13 17 20 22 23 24 25 24 24 23 23 23 24 25 24 22 20 19 20 20 20 19 18 17 17 15 16 17 18 17 16 15 14 12 10 9 7 6 5 4 3 2 2 2 2 2 2 2 2 1 1 0 0 1 1 2 2 2 2 3 3 3 4 4 4 4 3 2 2 1 1 1 2 4 4 4 4 6 9 11 14 15 17 18 21
12 14 18 21 22 23 24 24 24 23 22 21 23 24 25 23 21 20 21 21 21 20 19 18 18 17 17 19 19 19 18 16 15 13 11 10 8 6 5 4 3 1 0 1 1 2 2 2 1 2 1 1 1 2 2 2 3 3 3 3 4 4 4 4 4 3 3 2 1 1 1 2 3 3 3 3 4 8 10 13 15 17 18 20 22
11 12 15 18 21 22 22 23 23 23 22 21 22 24 24 23 22 21 21 21 21 21 20 19 19 18 19 20 20 20 19 17 16 14 12 11 9 8 6 5 4 3 2 1 1 2 2 2 2 2 3 2 2 3 4 4 4 4 4 4 5 5 5 5 4 4 3 2 2 2 3 4 4 2 2 3 6 9 10 13 16 17 19 20 20
12 11 13 14 17 20 21 22 23 23 23 23 23 24 24 23 22 21 21 22 22 22 22 21 20 20 21 21 21 21 20 18 16 14 13 12 11 9 7 6 5 4 3 2 2 2 2 2 2 3 4 4 3 4 5 6 6 6 6 6 5 6 6 6 5 5 4 4 4 4 5 6 4 1 1 3 6 8 10 13 15 17 18 18 18
14 12 12 12 13 17 21 22 22 23 23 24 24 24 24 23 22 22 21 21 21 22 23 22 22 21 22 22 22 22 21 19 17 15 14 13 12 10 8 7 6 5 5 4 4 4 4 4 3 4 5 5 5 6 6 8 8 8 8 7 7 7 7 7 6 6 6 6 6 6 6 6 4 2 1 2 5 8 9 11 13 14 16 17 19
17 14 12 11 12 15 19 22 23 23 23 23 23 24 24 24 23 23 22 21 21 22 23 24 23 22 22 23 23 23 21 20 18 17 16 15 13 11 9 8 8 7 6 6 6 6 5 5 5 5 6 7 7 7 8 9 10 10 9 9 8 8 8 8 8 8 7 7 8 7 7 7 6 5 5 4 5 8 9 11 12 13 13 16 19
21 17 15 13 13 14 16 19 22 23 23 22 22 23 24 25 24 23 22 22 22 22 23 24 24 23 22 23 24 24 23 21 20 20 18 16 15 13 11 10 9 8 8 8 7 7 7 7 6 6 7 9 10 10 9 10 11 11 11 11 10 10 9 10 10 9 9 9 9 9 9 9 9 8 7 6 7 9 10 11 12 12 12 13 16
23 21 18 17 15 14 15 17 20 22 22 23 22 22 23 24 24 23 23 24 23 23 24 25 25 25 23 23 24 24 24 24 23 22 20 18 16 14 12 10 10 9 10 10 9 9 9 9 8 8 8 9 11 12 12 12 12 13 13 12 12 12 12 11 11 10 10 10 10 11 11 11 10 10 9 8 9 11 11 13 14 13 12 12 12
25 23 21 20 17 16 16 17 18 20 21 22 23 22 22 23 24 23 22 24 25 25 25 25 25 26 25 24 23 24 25 26 25 24 22 19 17 15 12 11 11 11 11 11 11 11 10 10 10 10 9 10 12 13 14 14 14 14 14 13 13 14 13 13 12 12 11 11 12 13 13 12 12 12 11 10 11 13 14 15 16 14 14 14 13
26 24 23 22 20 17 17 17 18 18 20 22 23 23 23 22 23 23 22 24 26 26 26 25 26 27 27 25 23 24 26 27 27 26 24 21 18 16 14 12 11 12 12 12 12 12 12 12 12 12 11 10 11 13 14 15 16 15 15 15 15 15 15 14 13 13 13 13 14 15 15 13 12 13 13 13 13 15 16 17 17 16 15 16 16
25 25 24 23 21 19 18 18 18 18 19 20 22 23 23 22 23 23 23 23 25 26 26 26 27 28 28 27 25 24 25 27 28 28 27 24 21 18 16 13 11 12 13 14 14 14 14 14 14 13 13 12 12 13 14 16 16 16 16 16 16 16 16 15 14 14 14 14 15 16 16 15 13 13 15 15 16 17 17 18 19 18 17 17 18
26 25 25 24 22 20 19 20 20 19 19 19 20 22 23 23 23 23 23 23 24 26 27 27 27 28 29 29 27 25 25 27 29 30 29 27 24 20 17 14 12 12 13 15 15 15 15 16 15 15 15 14 14 14 14 15 17 17 16 16 17 18 18 17 16 15 15 15 16 17 17 16 15 15 16 16 17 18 19 20 20 19 19 19 20
28 26 25 24 23 21 21 21 21 21 20 19 18 19 21 23 23 23 24 24 23 25 26 27 27 28 29 30 28 27 25 26 28 30 31 31 28 24 19 16 13 13 14 16 16 16 16 16 16 16 16 16 16 15 15 15 16 18 18 18 18 19 19 19 18 17 16 16 17 17 17 17 17 17 17 17 17 18 19 20 22 22 21 21 21
29 26 25 24 23 22 22 22 23 22 21 19 17 18 20 22 24 24 24 24 23 24 25 27 27 28 29 30 29 28 27 26 28 30 32 33 31 26 22 18 15 14 16 17 18 18 17 16 16 16 17 18 18 17 17 16 16 17 19 19 19 19 20 20 19 19 18 17 18 18 18 18 18 18 18 18 19 20 20 22 24 24 24 24 24
28 27 26 25 24 23 23 24 24 23 22 20 18 18 20 22 23 24 24 24 24 24 24 26 27 27 29 30 30 29 29 28 28 30 32 34 33 29 25 21 17 17 18 19 19 19 19 18 17 17 17 18 18 18 18 18 18 18 19 20 19 19 20 21 20 20 19 19 19 19 19 19 19 18 18 19 20 22 23 24 25 26 26 26 26
28 26 27 26 25 25 25 25 25 25 24 22 21 20 20 21 23 24 25 25 25 24 24 24 25 26 28 29 30 30 30 29 28 29 31 33 33 30 27 23 20 20 21 21 21 21 20 19 18 18 18 18 18 18 19 19 19 19 19 19 20 20 21 21 20 20 21 21 20 19 19 20 19 17 18 19 21 23 24 25 26 27 27 28 28
29 29 29 29 27 27 27 26 26 26 25 24 24 22 21 22 23 23 24 25 25 25 24 23 23 24 26 29 30 30 31 30 29 29 30 32 32 31 28 25 23 23 24 23 23 22 22 21 20 19 19 19 18 18 19 20 20 20 20 20 20 21 22 21 20 20 21 21 21 21 21 20 19 18 18 19 21 23 24 26 27 28 28 29 29
34 33 32 31 30 29 29 28 27 27 26 26 26 24 23 23 23 23 24 25 25 25 24 22 22 23 25 27 29 30 30 30 30 30 30 31 31 31 29 26 25 26 26 25 24 23 23 22 21 21 21 20 19 19 20 21 21 21 20 20 21 23 23 22 21 20 20 21 22 22 22 21 20 19 19 20 21 22 23 25 27 28 29 29 29
38 37 35 33 32 32 32 31 29 28 27 28 28 26 24 24 24 24 24 25 25 25 24 23 22 22 23 26 27 29 29 30 30 31 31 31 31 30 28 27 27 28 27 26 25 24 24 24 23 22 22 21 21 20 21 22 22 21 21 22 22 23 24 23 22 21 21 22 23 23 23 22 21 21 20 21 23 24 24 27 28 29 30 31 32
42 40 38 36 35 34 34 34 33 30 28 28 29 27 25 25 26 25 25 25 25 25 24 23 23 23 23 24 26 27 29 30 30 31 32 32 31 30 28 27 28 29 28 26 26 25 25 25 24 23 23 23 23 22 22 22 22 23 23 23 23 24 25 24 23 22 22 23 24 24 24 23 22 21 22 24 25 26 27 29 31 32 33 34 34
45 44 41 39 38 37 37 37 37 34 30 29 29 28 27 26 27 27 26 26 26 25 24 24 23 23 23 24 24 26 28 29 29 30 31 32 31 30 29 28 28 28 28 27 27 26 25 25 24 24 24 25 25 24 23 24 23 23 23 24 25 25 25 25 24 23 23 23 25 25 25 25 23 22 23 26 27 27 28 31 32 34 35 36 36
48 47 45 42 41 41 40 40 39 37 33 30 29 28 28 28 28 28 27 27 26 25 24 24 23 23 23 23 24 25 27 27 27 28 30 30 30 29 28 27 27 28 28 28 27 26 25 25 25 25 25 25 25 25 24 25 24 24 24 24 25 25 26 26 26 24 24 24 25 26 26 25 24 24 25 27 27 28 30 32 34 35 36 37 37
50 48 47 46 44 43 43 42 40 38 35 31 29 28 28 28 28 28 28 28 27 26 24 24 23 23 23 23 23 24 26 26 25 26 28 28 28 28 27 27 27 28 28 28 27 25 25 24 24 25 25 25 25 25 25 25 25 24 23 24 25 26 26 27 27 25 24 24 25 26 27 26 25 25 27 29 29 30 32 34 35 36 37 38 38
48 48 48 47 46 45 44 42 40 40 37 33 29 29 29 28 28 28 28 28 27 26 25 24 24 24 23 23 24 24 25 25 24 25 26 27 27 28 28 28 28 28 27 27 26 25 24 23 23 23 23 23 23 24 24 25 25 24 23 24 25 26 27 27 27 26 25 25 26 26 26 26 26 27 29 30 30 32 34 35 36 37 38 38 39
44 45 45 46 46 45 43 42 41 41 39 34 30 29 29 28 27 27 28 28 28 27 25 24 24 24 24 25 25 25 25 25 25 25 26 27 28 29 29 29 29 28 26 25 24 23 21 20 19 18 18 18 19 20 21 22 22 22 23 23 24 26 27 27 27 27 26 26 26 27 27 27 28 29 30 31 32 33 35 37 37 38 38 39 40
42 43 45 45 45 43 42 42 42 42 39 34 31 29 28 27 27 28 29 29 28 27 25 24 25 26 26 26 26 26 25 26 26 26 27 28 28 28 28 27 26 24 22 21 21 20 18 16 15 14 14 15 15 16 18 19 20 21 21 22 23 25 26 27 27 28 27 27 28 28 28 29 30 31 31 32 33 34 36 37 37 38 38 39 40
40 42 44 44 43 42 42 43 43 43 39 34 31 29 27 27 28 29 29 28 28 27 26 26 26 28 28 27 27 27 26 26 27 26 25 25 26 25 24 23 21 19 19 19 19 17 15 14 14 15 14 14 14 15 16 17 19 20 21 22 23 24 25 25 26 27 28 28 29 30 31 31 32 32 33 34 34 35 37 38 37 37 38 39 39
39 41 42 42 41 41 43 43 43 43 40 35 30 28 28 28 29 29 29 29 28 27 27 28 29 29 29 29 27 26 26 25 24 23 21 21 22 22 21 20 19 18 18 19 18 17 16 15 16 16 17 16 16 16 16 17 17 18 20 22 22 24 25 24 25 28 30 30 31 32 33 33 34 34 35 36 36 36 37 37 37 38 38 39 40
40 40 40 40 40 41 43 44 44 42 39 34 30 29 29 30 30 30 30 29 28 28 28 29 30 30 29 27 25 24 23 22 21 20 19 19 20 20 20 20 20 19 19 20 20 19 19 18 18 19 20 20 19 19 19 19 19 18 20 22 22 24 25 25 26 29 30 31 33 35 35 35 37 37 37 36 35 35 37 37 38 39 40 40 41
40 40 40 40 41 42 43 44 44 42 38 33 30 30 30 30 30 30 29 28 28 29 30 29 29 28 27 25 23 22 22 21 21 21 20 20 20 21 22 23 22 21 21 22 22 22 22 22 21 21 22 23 23 23 22 23 23 22 23 24 25 26 28 28 29 30 31 32 34 36 36 38 40 41 40 37 34 34 36 38 40 40 41 41 41
41 42 43 42 43 44 44 44 44 42 37 33 32 31 31 31 31 30 29 29 29 29 29 28 27 26 26 24 24 23 23 23 23 24 23 23 23 24 25 25 26 25 25 25 25 25 25 25 25 25 24 25 25 26 26 27 28 28 27 28 29 30 32 33 34 35 36 37 38 40 41 43 44 44 43 40 36 36 38 39 40 41 40 40 39
47 48 48 48 47 46 46 45 44 41 37 34 33 32 32 32 32 30 29 29 28 28 28 28 27 26 26 25 25 25 25 26 26 26 27 27 27 27 27 28 28 28 28 28 29 29 29 29 29 29 28 28 28 29 29 30 31 32 32 33 34 35 36 36 38 41 41 42 43 43 42 43 44 45 45 43 42 42 42 40 39 40 39 38 38
51 54 54 53 51 48 46 46 44 41 38 37 35 34 34 33 32 31 29 28 29 30 29 29 28 28 28 28 28 28 28 28 28 29 29 30 30 30 30 30 31 31 31 32 32 32 32 32 32 32 32 32 32 32 33 34 34 36 37 37 38 40 40 40 41 44 44 43 43 42 40 40 43 44 44 44 43 42 41 39 39 39 39 38 39
48 51 53 52 51 49 47 46 44 41 40 39 38 37 36 35 33 31 30 30 31 31 31 31 31 31 31 31 31 31 31 32 32 32 32 33 33 33 34 34 35 36 36 35 35 35 35 35 35 35 35 35 35 35 36 37 37 38 40 40 41 43 45 44 43 44 44 43 42 41 40 40 42 42 41 41 40 38 39 40 40 39 39 39 41
45 47 49 49 48 48 48 48 46 43 42 41 41 39 38 36 34 32 32 33 33 32 32 33 34 34 33 33 34 34 35 36 36 36 36 36 37 37 38 39 39 39 39 38 38 38 37 37 38 39 39 38 38 37 37 39 41 41 42 42 43 45 47 46 44 44 44 43 41 40 38 38 38 37 37 36 36 36 38 39 39 39 40 41 42
41 43 46 49 49 48 48 48 46 43 41 41 41 40 38 36 35 35 34 34 33 33 34 35 36 36 36 36 37 38 39 39 39 39 40 40 40 41 41 41 40 40 40 39 39 38 37 37 38 39 40 39 39 38 39 42 44 44 44 44 44 44 43 42 40 41 43 43 40 37 36 36 35 34 34 35 36 37 38 38 39 41 42 42 43
41 41 44 49 49 47 47 46 45 43 43 43 43 41 39 37 37 36 35 34 34 34 36 37 38 38 39 41 43 43 44 43 43 43 43 44 44 45 45 44 43 42 42 41 39 38 38 38 37 37 36 37 39 40 42 43 45 46 46 46 45 44 42 40 38 39 41 41 37 34 33 35 35 35 36 38 39 39 39 40 41 43 44 43 44
45 45 46 48 49 47 45 44 42 40 40 40 38 37 37 37 37 37 36 36 36 36 38 39 40 41 44 46 47 46 45 45 44 44 44 45 46 47 47 46 45 44 43 42 41 39 39 39 38 37 37 38 40 42 43 44 44 45 46 44 43 44 43 40 37 37 38 38 36 35 35 36 36 37 38 40 40 40 41 42 44 45 45 45 46
47 47 47 47 47 44 41 38 35 32 33 34 35 35 37 38 39 40 40 39 37 37 38 40 42 43 44 45 43 41 40 40 40 41 43 44 44 44 45 44 44 44 43 43 42 41 40 40 40 40 40 41 42 42 43 43 43 43 42 40 40 42 42 39 37 37 37 37 37 38 38 38 38 39 40 42 42 42 43 44 45 46 47 48 49
48 48 47 46 44 42 39 34 31 29 30 32 35 37 39 40 42 42 40 37 35 36 37 39 41 41 41 40 40 39 37 37 38 40 41 42 42 42 43 43 43 43 43 43 42 42 41 41 41 41 41 41 42 41 41 41 41 41 40 39 40 42 41 40 38 38 38 38 40 41 40 40 41 42 43 43 44 45 44 45 46 48 49 50 52
50 51 50 46 43 41 39 36 32 31 32 34 36 38 41 42 41 40 38 37 37 38 39 40 41 41 41 41 40 38 36 36 37 38 38 39 39 40 41 42 42 42 41 42 41 41 41 40 40 40 40 40 40 40 39 40 41 41 41 41 42 42 42 41 41 41 41 42 44 44 43 43 43 44 45 45 46 46 47 47 49 50 51 52 54
52 53 52 48 43 41 41 39 35 33 34 36 38 40 41 41 41 40 40 41 42 42 43 43 42 42 42 41 39 37 35 35 35 36 36 36 37 38 39 40 40 39 38 38 38 38 39 39 39 39 39 39 39 39 40 41 42 42 42 42 43 43 42 43 45 46 46 47 47 46 45 45 45 46 47 47 47 48 49 50 51 51 53 54 56
54 55 55 52 48 46 46 45 42 40 39 40 42 43 43 43 43 43 43 44 44 45 45 44 43 42 41 41 39 38 36 35 35 36 36 36 37 38 38 37 37 36 37 37 38 38 39 39 39 39 39 39 40 40 41 43 44 44 43 44 44 44 45 47 49 49 49 49 49 48 48 47 48 49 49 49 49 50 52 53 53 53 55 56 57
57 57 57 56 54 52 51 50 48 46 45 45 46 46 46 46 46 46 46 46 46 46 45 45 44 43 42 42 40 38 36 35 36 37 37 37 37 38 37 37 37 37 38 38 39 39 39 39 39 39 40 41 42 43 44 45 45 45 45 45 46 47 48 50 51 51 51 51 52 51 50 50 50 51 52 52 52 53 54 54 55 56 57 58 58
61 61 59 58 56 55 54 52 51 50 50 50 50 50 49 49 49 48 49 49 49 48 47 47 46 45 44 43 41 39 37 37 37 37 38 38 38 39 39 39 39 39 40 40 40 40 40 40 41 41 42 43 44 45 45 46 46 47 47 48 50 51 52 52 53 53 53 53 53 53 52 52 53 53 53 53 54 55 56 57 58 59 60 60 60
64 64 62 60 58 57 56 55 54 54 54 54 54 53 52 52 52 52 52 53 52 51 50 49 48 46 45 44 42 40 39 39 39 39 39 40 41 42 42 41 41 41 42 42 42 42 42 43 43 44 44 45 46 46 47 48 49 51 52 52 53 53 54 54 55 55 55 54 54 54 54 55 55 55 55 56 56 57 59 60 61 61 61 61 61
68 66 64 61 60 60 60 60 59 58 58 57 57 56 55 55 56 56 57 57 56 55 53 51 48 46 46 46 44 43 42 41 41 41 42 42 43 43 43 43 43 44 45 45 45 45 45 45 46 47 47 48 49 50 50 52 53 54 54 54 55 55 55 55 55 56 56 56 55 55 56 57 57 57 57 58 60 61 62 63 63 62 62 61 61
68 67 67 65 63 62 62 63 63 63 61 59 58 57 58 59 60 61 62 63 61 57 53 50 47 47 47 47 46 45 44 44 43 44 44 45 45 45 44 45 45 46 47 47 47 47 47 48 48 49 50 51 51 52 53 54 54 54 55 55 55 55 56 56 56 56 57 57 57 57 57 58 58 59 60 62 63 63 63 63 62 61 61 62 63
Wind_Direction
240 237 235 235 235 237 238 236 237 236 235 235 236 235 231 226 222 222 224 226 228 229 229 230 231 230 225 218 210 200 190 183 180 178 173 169 163 154 144 134 123 112 104 100 95 83 220 235 244 248 252 256 255 262 282 297 305 311 300 226 151 136 132 132 131 126 118 107 99 92 82 74 64 48 37 30 23 14 6 0 359 2 5 2 358
242 238 235 235 237 239 241 241 240 240 238 237 239 239 237 233 228 226 227 229 231 233 232 232 231 228 220 211 203 195 190 188 187 185 182 177 171 164 154 145 132 116 102 91 86 78 74 99 217 237 238 244 247 244 253 261 265 273 254 215 186 165 155 154 154 149 141 125 111 100 85 68 50 35 29 28 25 14 2 358 1 5 5 4 360
245 242 238 235 236 237 240 242 243 243 242 241 242 243 243 239 234 231 231 233 236 238 239 237 235 229 217 208 202 197 194 193 194 193 190 186 181 175 165 156 142 122 103 80 69 69 68 69 58 14 303 232 241 230 231 239 230 221 221 213 203 190 178 175 173 168 159 146 130 117 101 56 40 42 36 33 27 7 354 356 3 6 5 3 0
249 245 241 238 237 237 240 241 243 244 244 245 246 247 248 245 240 235 234 235 238 242 245 244 242 235 220 208 204 201 199 198 200 201 197 193 192 188 180 176 169 141 110 76 45 40 51 55 40 14 6 357 235 219 214 222 218 210 210 210 211 207 198 191 186 180 174 165 150 141 175 299 26 44 41 36 19 358 356 1 5 6 5 2 0
250 249 245 241 240 239 240 242 243 244 244 245 247 250 252 251 247 241 237 236 239 243 246 247 246 240 227 215 209 207 204 203 205 206 203 200 201 200 200 203 203 195 147 63 21 9 11 11 357 338 332 329 237 227 224 223 219 216 216 216 218 219 215 209 200 195 198 199 206 240 290 311 346 25 50 42 9 359 0 2 3 3 2 2 0
244 252 250 245 242 242 242 244 245 245 244 243 245 248 252 254 252 247 242 238 238 242 246 248 247 242 232 222 217 213 210 209 209 210 209 207 207 208 213 222 226 233 250 293 339 345 339 331 323 310 301 292 254 235 230 228 225 223 224 223 226 228 226 223 217 215 221 234 256 278 287 285 297 343 61 30 4 357 354 354 357 358 358 359 357
239 248 255 252 247 243 244 245 246 246 245 243 243 244 247 251 253 251 246 241 239 241 244 247 248 245 238 229 223 220 216 214 214 215 215 215 215 215 219 228 236 245 263 281 293 307 307 297 292 284 282 276 259 244 236 233 231 230 230 230 231 235 235 233 231 230 234 247 255 264 268 266 268 297 53 10 351 346 347 349 351 351 350 351 349
238 239 249 255 252 246 244 244 245 246 247 246 246 246 246 248 250 251 249 244 241 240 242 245 247 248 245 237 230 227 222 218 218 220 220 221 221 221 223 231 240 249 262 277 282 283 282 279 273 264 265 265 257 249 243 239 237 236 236 236 236 237 241 242 243 241 244 252 257 261 269 273 282 297 288 324 335 332 338 344 345 344 345 343 339
240 238 241 245 249 249 245 243 244 246 248 249 248 250 249 248 247 248 249 247 242 240 241 244 247 249 248 243 237 232 227 221 221 224 225 225 227 227 226 232 243 250 257 268 274 275 274 274 272 263 259 259 256 251 248 245 243 241 240 241 242 243 244 246 248 250 251 257 264 272 280 285 293 295 282 291 315 315 320 332 336 338 345 343 335
241 240 241 240 241 247 248 246 244 244 248 250 250 250 251 251 249 247 247 247 244 240 240 242 245 248 248 246 242 237 230 224 223 227 228 228 230 232 232 234 241 250 259 266 268 268 271 272 272 268 262 260 258 253 250 248 247 245 243 243 245 248 248 249 251 254 255 258 266 275 282 286 289 288 280 281 295 300 305 318 325 331 341 344 335
239 239 242 242 239 243 248 249 247 246 246 249 250 251 252 253 253 249 247 247 245 242 240 240 243 246 247 246 244 240 233 227 225 228 231 230 230 233 237 241 245 250 257 265 267 266 269 272 273 271 266 262 260 255 251 251 250 248 246 244 245 247 250 253 255 257 258 261 268 273 278 282 284 282 277 277 286 294 301 310 317 325 332 334 332
236 236 239 243 240 241 247 249 249 248 247 248 250 251 252 253 254 252 249 248 247 244 241 240 241 244 245 245 244 241 236 230 228 230 232 232 232 233 238 245 252 255 256 261 266 267 269 272 275 276 271 266 265 261 256 253 252 252 249 246 245 246 250 255 257 259 261 263 268 272 275 279 280 279 279 280 285 293 301 306 311 318 323 325 327
235 233 235 240 241 242 247 248 249 249 247 247 248 249 251 253 255 254 250 248 248 246 244 242 240 241 243 244 243 241 238 233 231 232 234 234 233 235 239 243 251 259 261 261 264 267 269 271 274 278 278 273 271 268 262 255 253 253 252 249 247 246 249 255 258 259 261 263 266 272 276 276 277 279 282 284 287 292 298 303 307 312 317 320 324
236 234 232 235 238 243 247 247 248 249 248 248 248 249 251 251 253 254 252 249 249 248 247 244 242 241 241 242 241 240 238 235 232 233 235 237 235 235 240 243 248 258 264 264 263 265 268 271 273 276 280 279 275 272 268 260 254 253 253 252 251 249 249 253 257 260 262 263 266 272 277 279 280 280 281 284 286 290 295 300 304 310 315 320 324
237 235 232 232 235 241 246 246 247 249 250 251 250 251 251 250 251 253 253 251 250 249 248 246 244 243 242 241 240 239 238 236 233 233 236 239 238 235 237 242 248 257 265 265 263 262 265 269 273 276 279 281 279 276 274 267 258 254 253 253 254 253 251 252 257 261 262 265 268 272 276 280 281 280 279 281 285 288 293 299 304 309 315 320 323
239 238 236 233 233 238 243 245 248 251 253 253 253 254 253 251 249 249 251 252 251 250 250 248 245 244 244 243 240 239 238 236 234 233 235 240 241 237 236 241 249 260 267 265 262 261 264 267 271 274 277 279 280 280 278 274 265 256 253 253 255 256 254 253 256 260 263 266 269 270 272 276 279 280 281 282 285 288 294 301 306 310 314 317 320
242 242 240 236 233 234 239 244 248 253 256 256 257 257 256 252 249 247 249 251 252 252 252 250 246 243 244 244 241 238 237 236 235 234 235 239 241 239 237 240 249 262 269 266 262 261 264 266 268 272 274 276 280 282 281 279 273 262 255 253 255 257 257 256 257 260 262 264 267 268 269 271 275 279 283 286 291 295 300 305 307 309 313 315 318
245 245 244 241 235 233 237 242 247 253 258 260 260 259 257 255 250 248 248 249 251 252 252 251 248 244 243 243 242 239 236 234 234 234 235 238 241 240 238 240 249 264 269 266 262 262 264 266 268 270 272 274 278 281 282 280 277 269 259 255 255 256 257 258 259 260 261 263 266 268 269 270 273 280 287 292 296 300 302 303 305 308 312 315 318
249 248 247 245 241 236 238 241 246 252 258 262 263 260 259 257 253 250 248 248 249 251 252 252 250 246 244 243 242 241 238 235 234 234 236 238 241 241 239 239 249 263 267 265 263 262 264 267 269 269 271 274 277 280 281 279 277 273 265 258 256 256 258 260 261 260 260 263 267 270 270 271 274 280 287 291 294 296 299 301 305 309 312 314 316
251 250 247 246 245 243 243 243 246 251 256 261 262 260 258 257 255 253 251 249 249 251 253 255 253 249 245 243 242 242 240 237 235 235 237 239 241 242 240 240 249 261 264 265 264 264 265 267 269 271 272 274 277 279 280 279 278 275 270 262 257 256 259 262 263 260 261 264 268 271 271 272 274 277 282 288 292 295 299 303 307 309 310 310 311
249 250 250 249 248 249 249 248 249 251 254 258 260 259 258 257 257 255 252 251 251 250 252 255 254 251 247 244 243 242 242 239 236 235 237 239 241 242 241 241 250 258 262 264 265 265 266 268 270 272 274 276 278 279 279 280 279 277 273 266 261 259 260 264 266 265 264 265 267 271 274 275 276 279 283 288 292 296 300 304 306 308 309 309 310
247 249 251 251 250 251 252 254 254 253 254 256 259 259 258 257 257 256 254 253 252 252 252 253 254 253 249 245 243 242 241 240 238 236 237 239 241 242 241 242 250 257 260 263 265 265 266 268 270 273 276 278 279 278 278 279 280 279 274 268 263 261 262 265 268 269 267 267 268 273 276 279 281 284 289 293 295 299 303 305 307 309 311 311 312
245 248 250 251 251 251 252 254 256 256 255 256 258 258 257 256 256 256 254 253 252 252 252 252 253 254 251 247 243 242 241 240 238 237 237 238 240 242 241 243 249 255 258 261 263 264 265 267 270 273 276 278 278 277 277 278 279 278 275 269 265 263 263 265 269 270 269 270 271 274 278 281 284 288 293 295 298 303 305 306 308 310 312 314 314
242 245 248 250 250 251 251 252 255 257 257 257 257 256 255 255 255 255 254 253 252 250 250 251 252 253 251 248 244 242 241 240 239 238 238 238 240 242 242 244 248 252 256 259 260 262 264 266 268 271 274 276 277 277 278 278 278 278 275 271 267 264 264 266 268 270 272 274 274 275 277 281 284 289 292 292 296 301 303 303 307 309 311 313 314
242 244 247 248 249 250 250 250 252 255 256 256 256 255 254 253 254 255 254 254 252 248 247 249 251 252 250 247 243 241 241 240 238 237 237 238 239 241 243 244 246 250 253 256 258 260 261 263 266 270 273 275 277 279 280 280 280 278 276 273 270 266 265 265 267 270 274 276 276 277 278 279 283 287 288 289 295 300 300 302 305 307 310 312 313
240 242 244 246 247 247 247 248 250 253 254 254 254 254 252 252 252 253 254 253 250 246 243 244 248 249 247 244 242 240 239 238 234 233 234 236 237 240 241 243 245 248 251 254 256 257 258 262 267 271 274 276 278 280 280 280 280 279 276 272 269 266 264 264 265 267 271 275 278 278 279 281 283 285 287 290 295 298 300 301 303 305 308 309 310
236 237 239 241 242 243 243 245 247 250 252 252 253 253 250 250 250 252 253 252 248 243 240 240 244 246 243 241 239 237 236 235 231 229 232 234 235 237 240 242 245 248 250 252 254 257 261 267 271 273 275 277 278 279 279 279 280 279 276 271 267 264 263 262 263 266 270 275 278 279 280 282 283 284 286 290 294 296 298 299 300 302 305 306 308
231 232 234 236 237 238 240 242 244 247 249 250 251 250 247 247 249 250 250 248 243 239 238 238 240 241 239 236 235 234 233 233 230 228 230 233 234 237 240 243 245 248 250 253 257 263 268 270 271 272 274 277 278 280 281 280 280 279 276 272 268 265 263 263 264 265 270 275 278 280 281 281 282 283 285 287 290 293 294 295 297 300 302 304 305
226 227 229 231 233 234 236 239 242 244 247 248 248 245 243 244 247 247 246 242 237 235 235 236 236 236 235 234 233 233 233 233 232 230 231 234 237 240 242 245 248 251 255 258 261 264 265 266 269 274 279 284 288 288 286 282 280 279 276 272 269 267 265 265 266 268 272 277 281 281 282 282 282 284 285 285 287 289 290 291 294 297 299 302 303
226 227 228 230 232 233 234 237 239 242 245 246 243 240 240 243 244 245 241 236 233 232 232 233 233 233 233 234 234 234 234 235 235 235 235 237 241 244 246 249 251 253 255 257 258 257 258 261 270 278 284 291 298 300 297 291 286 284 281 277 273 270 269 268 269 271 273 277 279 280 281 282 282 283 283 283 284 285 287 289 292 295 297 300 301
226 226 227 229 230 231 232 234 237 240 243 243 239 237 239 242 242 240 236 231 230 230 230 230 231 232 234 234 235 235 236 237 240 241 238 237 240 243 246 248 249 248 250 253 254 256 259 265 273 279 284 289 297 302 302 299 296 292 289 286 283 280 277 275 274 274 275 276 278 279 279 279 279 279 279 280 281 283 285 287 290 293 296 298 299
227 226 226 226 227 228 229 231 234 237 238 237 234 235 239 241 240 237 233 230 229 230 230 231 232 234 236 238 238 238 238 238 239 239 236 233 235 240 244 248 248 248 251 256 259 263 268 273 276 279 283 287 291 294 296 298 299 297 294 291 290 288 286 282 278 276 276 276 276 276 275 275 274 273 272 272 275 279 283 285 289 292 294 296 299
230 228 227 225 225 225 225 227 230 233 234 232 232 235 238 239 238 235 231 229 229 230 232 233 233 235 237 238 237 237 237 236 236 237 236 235 236 240 245 249 252 254 256 261 265 268 272 275 277 279 281 283 285 287 290 292 293 293 291 289 288 286 284 282 280 279 278 276 274 273 271 270 269 268 269 270 273 277 282 286 289 291 293 296 300
231 229 228 226 223 222 223 224 226 228 229 229 230 233 236 236 235 232 229 228 230 231 233 234 233 234 235 236 236 235 235 234 234 236 238 240 241 243 246 249 253 256 259 261 263 266 269 272 273 274 275 277 279 282 284 285 286 287 287 286 284 281 279 278 278 278 277 275 274 274 273 273 273 275 277 280 284 286 288 289 290 291 293 296 299
227 225 224 222 221 219 219 220 222 224 225 226 228 231 233 233 233 232 230 229 229 230 232 233 234 234 235 235 235 235 235 236 236 238 239 241 243 245 248 251 254 258 260 262 264 266 267 268 269 270 271 272 274 276 278 279 282 283 284 283 281 280 278 277 276 274 274 274 275 277 278 281 284 286 286 289 292 293 292 291 292 293 295 296 297
226 222 218 216 215 214 215 216 219 221 222 224 227 228 229 231 232 232 231 230 229 230 232 233 235 236 237 236 235 236 237 238 239 240 242 243 245 247 250 253 256 258 260 262 264 265 266 266 266 267 268 269 269 271 273 275 277 279 280 280 280 279 278 277 275 274 274 275 277 280 283 286 289 290 291 292 293 292 292 293 294 295 295 295 295
229 225 219 214 210 209 211 214 216 218 219 222 224 225 226 228 230 230 231 231 231 231 232 233 236 237 238 238 239 239 240 241 242 244 246 248 249 251 253 254 256 257 259 261 263 264 265 264 264 264 265 266 267 268 270 272 274 276 278 279 279 279 279 278 277 276 276 277 279 282 285 286 288 291 292 292 290 288 288 290 292 293 294 294 294
232 229 225 219 210 205 207 212 213 214 215 218 222 223 225 227 228 229 230 232 233 233 233 234 237 239 240 241 242 242 243 244 246 247 249 251 252 254 255 256 257 258 260 263 265 267 266 264 263 263 263 263 265 266 268 271 272 273 275 276 277 279 280 280 279 279 278 278 280 282 283 284 286 289 291 291 289 285 284 285 288 290 292 292 293
231 231 228 223 214 206 205 209 210 210 213 218 222 224 225 228 229 230 232 233 235 236 237 238 240 242 244 245 245 245 246 247 248 249 251 253 254 255 256 257 259 261 263 264 266 267 266 265 265 264 263 262 263 266 268 270 271 272 274 274 274 275 276 276 276 277 278 279 280 281 283 285 287 288 287 287 287 285 283 284 287 289 289 290 291
225 227 227 226 221 214 209 208 206 206 210 216 221 223 225 228 231 232 234 236 237 238 240 241 243 245 246 247 247 247 248 248 249 250 252 254 255 257 259 261 263 265 266 266 266 266 266 266 266 266 264 262 264 266 268 270 272 274 275 276 276 276 276 276 279 283 285 284 283 283 285 287 288 286 283 283 286 286 285 286 288 288 289 290 291
221 222 224 225 226 224 217 210 207 208 213 219 224 227 229 233 236 237 239 240 240 241 243 244 246 247 247 248 249 249 250 251 251 252 254 255 257 258 260 262 263 264 265 265 265 264 263 263 264 264 264 263 264 266 268 269 271 272 275 278 281 282 281 283 287 289 289 287 285 286 286 287 286 284 283 283 285 286 285 286 287 289 290 292 293
225 225 224 225 227 229 224 217 214 217 222 226 231 234 237 240 243 244 244 244 244 243 242 243 244 245 247 249 252 253 253 254 254 255 256 257 258 258 259 259 260 261 262 262 261 261 261 261 261 262 262 262 264 266 267 269 271 272 273 277 281 282 282 284 285 285 284 283 283 285 286 286 285 284 284 285 285 285 285 286 288 289 291 293 294
230 230 229 227 228 231 229 225 225 227 227 228 231 234 237 240 243 244 245 244 242 240 238 240 242 244 246 249 252 254 255 255 254 253 254 255 256 257 257 257 258 258 258 258 258 258 258 258 259 259 260 261 262 264 265 268 271 273 274 275 275 275 277 280 281 281 281 282 282 284 284 284 283 283 284 285 285 284 285 286 288 289 291 293 295
233 235 233 230 230 230 226 223 225 229 229 229 230 232 233 236 239 242 244 244 242 241 243 244 246 247 249 250 251 253 257 258 255 252 252 253 253 254 255 255 255 255 256 256 257 257 258 258 257 258 258 259 260 262 263 265 267 269 272 273 273 273 274 277 281 283 283 282 282 282 282 282 283 284 285 285 285 285 285 287 288 290 292 294 295
232 236 237 234 232 231 227 225 229 233 231 230 232 233 234 236 238 240 242 244 245 247 248 249 249 250 251 252 253 257 260 259 255 252 251 251 251 251 251 252 253 253 254 256 257 257 256 256 255 255 257 258 260 262 263 264 266 268 270 273 275 275 275 277 280 283 284 282 280 280 282 283 283 283 283 285 286 286 286 288 289 291 292 294 295
229 234 237 235 232 231 230 231 235 237 233 231 233 235 235 237 239 241 243 246 248 250 251 252 253 254 254 255 257 261 262 258 253 251 252 252 253 253 253 253 254 253 253 253 255 255 255 255 255 257 258 260 262 263 265 266 269 270 271 272 274 275 276 276 278 280 281 281 281 282 283 283 282 282 284 286 286 286 286 288 289 291 292 293 294
227 231 235 236 234 231 230 230 233 234 233 232 233 235 236 238 240 242 245 247 249 251 253 255 255 256 257 259 261 263 262 257 252 251 253 254 256 257 257 257 255 254 253 252 253 255 256 257 258 260 261 262 263 265 266 268 269 270 270 271 273 274 275 276 277 278 279 279 280 281 281 281 281 283 284 285 285 285 286 287 289 291 293 293 294
225 228 232 234 235 235 233 231 231 233 235 235 235 236 238 240 241 243 246 247 249 251 253 254 255 256 259 261 262 263 263 260 257 255 256 257 258 259 259 258 257 256 256 256 256 257 258 259 260 261 262 264 265 265 266 267 268 269 270 272 274 275 275 276 276 277 277 278 278 278 279 279 280 282 283 284 284 285 286 288 290 292 292 292 292
224 226 229 232 234 235 234 233 233 234 235 236 236 237 238 240 241 243 245 247 249 251 252 252 254 256 258 259 260 261 262 261 259 258 258 259 259 259 258 258 258 258 259 259 259 259 260 261 261 262 263 264 265 266 266 267 268 269 271 272 273 273 274 274 275 275 276 277 277 278 279 280 282 283 284 284 284 285 287 289 290 290 291 291 292
222 224 227 231 234 236 235 234 234 235 235 235 237 238 238 239 240 242 244 245 247 249 249 250 251 253 255 257 259 260 260 260 259 259 259 259 259 260 260 260 261 261 262 262 262 262 262 263 263 264 264 265 265 266 266 267 268 269 270 271 271 272 272 273 273 274 276 277 278 278 280 281 282 282 283 284 285 286 287 288 288 289 290 291 292
223 223 225 228 233 236 237 236 235 236 235 235 236 238 239 240 240 240 243 244 244 243 244 246 248 250 253 256 259 259 258 257 257 258 258 259 261 261 262 263 263 263 263 263 263 263 263 263 263 263 264 265 265 266 266 267 267 268 269 269 270 270 271 272 273 274 275 276 277 278 279 279 280 281 282 283 284 285 286 287 288 289 290 291 292
Height
5918 5920 5922 5923 5925 5926 5928 5930 5932 5934 5936 5937 5939 5940 5942 5943 5944 5945 5947 5948 5948 5949 5950 5951 5951 5952 5954 5955 5956 5956 5957 5958 5959 5960 5961 5961 5962 5963 5963 5964 5964 5964 5964 5964 5965 5965 5965 5965 5965 5966 5966 5967 5967 5967 5968 5968 5969 5969 5970 5970 5970 5971 5971 5972 5972 5973 5973 5974 5974 5975 5975 5976 5976 5976 5975 5975 5975 5974 5974 5973 5973 5972 5971 5970 5968
5916 5918 5920 5922 5924 5925 5927 5929 5931 5932 5934 5936 5938 5939 5941 5942 5944 5945 5946 5947 5948 5948 5949 5950 5951 5952 5953 5954 5955 5956 5957 5958 5959 5959 5960 5961 5962 5963 5963 5964 5964 5964 5964 5964 5965 5965 5965 5965 5965 5966 5966 5967 5967 5967 5968 5968 5969 5969 5969 5970 5970 5971 5971 5972 5972 5973 5973 5974 5974 5975 5975 5975 5975 5975 5975 5975 5975 5974 5973 5973 5972 5971 5970 5969 5967
5915 5917 5918 5920 5922 5924 5925 5927 5929 5931 5933 5935 5937 5938 5940 5941 5943 5944 5945 5946 5947 5948 5948 5949 5950 5951 5952 5953 5954 5955 5956 5957 5958 5959 5960 5961 5962 5962 5963 5963 5964 5964 5964 5964 5965 5965 5965 5966 5966 5966 5966 5967 5967 5967 5968 5968 5969 5969 5969 5970 5970 5971 5971 5972 5972 5973 5973 5974 5974 5975 5975 5975 5975 5975 5975 5975 5974 5974 5973 5972 5971 5970 5969 5967 5966
5914 5915 5917 5919 5920 5922 5924 5926 5928 5929 5932 5934 5935 5937 5938 5940 5942 5943 5944 5945 5946 5947 5948 5949 5949 5950 5951 5952 5954 5955 5956 5956 5957 5958 5959 5960 5961 5962 5962 5963 5963 5964 5964 5965 5965 5965 5966 5966 5966 5966 5966 5967 5967 5967 5968 5968 5968 5969 5969 5970 5970 5971 5971 5972 5972 5973 5973 5973 5974 5974 5974 5974 5974 5974 5974 5974 5974 5973 5972 5971 5970 5969 5968 5966 5964
5913 5914 5915 5917 5919 5921 5923 5924 5926 5928 5930 5932 5934 5935 5936 5938 5940 5942 5943 5944 5945 5946 5947 5948 5948 5949 5950 5951 5952 5953 5955 5956 5957 5958 5959 5960 5960 5961 5962 5962 5963 5964 5964 5965 5965 5965 5966 5966 5966 5966 5967 5967 5967 5968 5968 5968 5968 5969 5969 5970 5970 5971 5971 5972 5972 5972 5973 5973 5973 5974 5974 5974 5974 5974 5974 5974 5973 5972 5971 5969 5968 5968 5967 5965 5963
5912 5913 5914 5916 5918 5920 5921 5923 5925 5926 5928 5930 5932 5933 5934 5936 5938 5940 5941 5943 5944 5945 5946 5947 5947 5948 5949 5950 5951 5952 5954 5955 5956 5957 5958 5959 5960 5960 5961 5962 5962 5963 5964 5964 5965 5965 5966 5966 5966 5966 5967 5967 5967 5967 5968 5968 5968 5968 5969 5969 5970 5970 5971 5971 5972 5972 5972 5972 5973 5973 5973 5973 5973 5973 5973 5972 5972 5971 5969 5968 5967 5966 5965 5964 5963
5910 5912 5913 5914 5916 5918 5920 5921 5923 5924 5926 5928 5929 5930 5932 5934 5936 5938 5939 5941 5943 5944 5944 5946 5946 5947 5948 5949 5950 5951 5953 5954 5955 5956 5957 5958 5959 5960 5960 5961 5962 5962 5963 5964 5965 5965 5965 5966 5966 5966 5966 5967 5967 5967 5967 5967 5968 5968 5968 5969 5969 5970 5970 5971 5971 5971 5972 5972 5972 5972 5972 5972 5972 5972 5972 5971 5970 5970 5969 5967 5966 5965 5964 5963 5962
5909 5910 5912 5913 5915 5916 5917 5919 5920 5922 5924 5926 5927 5929 5930 5932 5934 5936 5937 5939 5941 5942 5943 5944 5945 5946 5947 5948 5949 5950 5952 5953 5955 5956 5957 5957 5958 5959 5960 5960 5961 5962 5963 5963 5964 5965 5965 5965 5966 5966 5966 5966 5966 5967 5967 5967 5967 5967 5968 5968 5969 5969 5970 5970 5970 5971 5971 5971 5972 5972 5972 5971 5971 5971 5970 5970 5970 5969 5968 5967 5966 5965 5963 5961 5960
5907 5908 5910 5912 5913 5914 5915 5916 5918 5920 5922 5924 5926 5927 5928 5930 5932 5934 5935 5937 5938 5940 5941 5942 5943 5945 5946 5947 5948 5950 5951 5953 5954 5955 5956 5957 5957 5958 5959 5960 5961 5961 5962 5963 5963 5964 5964 5965 5965 5965 5965 5965 5966 5966 5966 5966 5966 5966 5967 5967 5968 5968 5969 5969 5969 5970 5970 5971 5971 5970 5970 5969 5969 5969 5969 5969 5968 5968 5967 5966 5965 5964 5963 5961 5958
5905 5907 5908 5910 5911 5912 5913 5914 5916 5918 5919 5921 5923 5925 5926 5928 5930 5932 5933 5934 5936 5938 5939 5940 5942 5943 5945 5946 5947 5949 5951 5952 5953 5954 5955 5956 5957 5958 5958 5959 5960 5961 5961 5962 5962 5963 5963 5964 5964 5965 5965 5965 5965 5965 5965 5965 5965 5965 5966 5966 5967 5967 5967 5968 5968 5969 5969 5969 5969 5969 5969 5968 5968 5968 5967 5967 5967 5966 5966 5965 5964 5963 5962 5961 5958
5903 5905 5906 5908 5909 5911 5912 5913 5914 5915 5917 5919 5921 5923 5924 5926 5928 5930 5931 5932 5934 5935 5937 5938 5940 5941 5943 5944 5946 5948 5950 5951 5952 5953 5954 5955 5956 5957 5957 5958 5959 5960 5960 5961 5961 5962 5962 5963 5963 5964 5964 5964 5963 5963 5964 5964 5964 5964 5964 5965 5965 5966 5966 5966 5967 5967 5968 5968 5968 5967 5967 5967 5966 5966 5966 5965 5965 5964 5964 5964 5963 5962 5960 5960 5958
5900 5902 5904 5905 5907 5909 5910 5911 5912 5913 5915 5917 5918 5920 5922 5923 5925 5928 5930 5931 5931 5933 5935 5936 5938 5939 5940 5942 5944 5946 5948 5949 5950 5951 5952 5953 5954 5955 5956 5957 5958 5958 5959 5960 5960 5960 5961 5961 5961 5962 5962 5963 5962 5962 5962 5962 5963 5963 5963 5964 5964 5964 5964 5965 5965 5965 5966 5966 5966 5965 5965 5965 5965 5964 5964 5964 5963 5962 5962 5961 5960 5959 5958 5958 5957
5897 5900 5902 5903 5905 5907 5908 5909 5910 5912 5913 5915 5916 5918 5919 5921 5923 5925 5927 5928 5929 5930 5932 5934 5935 5936 5938 5940 5942 5944 5945 5947 5948 5949 5950 5952 5953 5954 5955 5956 5956 5957 5957 5958 5958 5958 5959 5959 5959 5960 5960 5961 5961 5961 5961 5961 5961 5961 5962 5962 5962 5962 5963 5963 5963 5964 5964 5964 5964 5963 5963 5963 5963 5963 5962 5962 5961 5961 5960 5959 5958 5957 5956 5955 5954
5895 5898 5900 5901 5903 5905 5906 5907 5909 5910 5911 5913 5914 5915 5917 5919 5920 5922 5924 5925 5927 5928 5930 5931 5933 5934 5935 5937 5939 5941 5942 5944 5946 5947 5948 5949 5951 5952 5953 5954 5955 5955 5956 5956 5956 5956 5957 5957 5957 5958 5958 5959 5959 5959 5959 5959 5959 5960 5960 5960 5960 5960 5961 5961 5961 5962 5962 5962 5962 5961 5961 5961 5961 5961 5960 5960 5959 5959 5958 5957 5956 5955 5954 5952 5951
5893 5895 5897 5899 5901 5903 5904 5905 5906 5908 5909 5911 5912 5913 5915 5916 5918 5919 5921 5923 5924 5925 5927 5928 5930 5931 5933 5934 5936 5938 5940 5942 5943 5945 5946 5947 5948 5950 5951 5952 5953 5954 5954 5954 5954 5955 5955 5955 5955 5956 5956 5956 5957 5957 5957 5957 5957 5958 5958 5958 5958 5958 5959 5959 5959 5960 5960 5960 5960 5959 5959 5958 5958 5959 5958 5958 5957 5956 5955 5954 5953 5952 5951 5950 5948
5890 5893 5895 5897 5899 5901 5902 5903 5904 5905 5907 5909 5910 5911 5912 5913 5915 5916 5918 5919 5921 5923 5924 5925 5927 5929 5930 5931 5933 5935 5937 5939 5940 5942 5943 5944 5945 5947 5949 5950 5951 5952 5952 5952 5952 5953 5953 5953 5953 5954 5954 5954 5954 5955 5955 5955 5955 5955 5956 5956 5956 5956 5957 5957 5957 5957 5958 5958 5958 5957 5957 5956 5956 5956 5956 5955 5955 5954 5953 5952 5950 5949 5948 5947 5946
5887 5890 5893 5895 5897 5899 5900 5901 5902 5903 5904 5906 5908 5909 5910 5911 5912 5914 5915 5916 5918 5920 5921 5922 5924 5926 5927 5928 5931 5932 5934 5936 5937 5939 5940 5940 5942 5945 5946 5947 5948 5949 5950 5950 5950 5950 5951 5951 5951 5952 5952 5952 5952 5952 5952 5952 5953 5953 5953 5953 5954 5954 5954 5955 5955 5955 5956 5956 5956 5955 5955 5954 5954 5953 5953 5952 5952 5951 5950 5949 5947 5946 5945 5944 5943
5885 5888 5890 5892 5894 5896 5898 5899 5900 5901 5902 5904 5905 5907 5907 5908 5909 5911 5912 5913 5915 5917 5918 5919 5921 5922 5924 5925 5927 5929 5931 5933 5934 5935 5937 5937 5939 5942 5943 5945 5946 5947 5947 5947 5947 5948 5948 5948 5949 5949 5949 5949 5950 5950 5950 5950 5950 5950 5950 5951 5951 5952 5952 5952 5953 5953 5953 5954 5954 5953 5953 5952 5952 5951 5950 5949 5948 5947 5947 5946 5945 5943 5942 5941 5939
5882 5885 5887 5889 5891 5893 5895 5896 5898 5899 5900 5901 5902 5904 5905 5906 5907 5908 5909 5910 5912 5913 5915 5916 5917 5919 5921 5922 5924 5925 5927 5930 5931 5933 5934 5935 5936 5939 5940 5942 5943 5944 5944 5944 5945 5945 5945 5946 5946 5947 5947 5947 5947 5947 5947 5947 5947 5948 5948 5948 5949 5949 5950 5950 5951 5951 5951 5951 5951 5951 5951 5950 5950 5949 5948 5947 5946 5945 5944 5943 5942 5941 5939 5938 5936
5879 5881 5884 5886 5888 5890 5892 5894 5895 5896 5898 5899 5899 5901 5902 5903 5904 5905 5906 5907 5909 5910 5912 5913 5915 5916 5918 5919 5920 5922 5924 5926 5928 5930 5931 5932 5934 5936 5937 5939 5941 5941 5940 5941 5942 5942 5943 5943 5943 5943 5944 5944 5945 5945 5945 5945 5945 5945 5945 5946 5946 5946 5947 5947 5948 5949 5949 5949 5949 5949 5949 5948 5948 5947 5947 5946 5945 5944 5942 5941 5939 5938 5937 5936 5934
5875 5877 5879 5882 5884 5886 5888 5890 5892 5894 5895 5896 5897 5898 5899 5900 5901 5902 5903 5904 5906 5907 5909 5910 5912 5913 5914 5916 5917 5919 5921 5923 5925 5927 5928 5929 5931 5932 5935 5937 5937 5937 5937 5938 5939 5939 5939 5940 5940 5940 5941 5941 5942 5942 5942 5942 5942 5942 5943 5943 5943 5943 5944 5944 5945 5946 5946 5946 5946 5946 5946 5946 5945 5945 5944 5943 5942 5942 5940 5939 5937 5936 5934 5933 5931
5870 5873 5875 5878 5880 5883 5884 5886 5888 5890 5891 5893 5894 5895 5897 5898 5898 5899 5900 5901 5903 5904 5906 5907 5909 5910 5911 5912 5914 5916 5918 5920 5922 5923 5925 5926 5927 5929 5932 5933 5934 5934 5934 5935 5936 5936 5936 5937 5937 5937 5937 5938 5939 5939 5939 5939 5939 5939 5940 5940 5940 5940 5940 5941 5942 5943 5943 5943 5943 5943 5943 5943 5942 5941 5940 5940 5938 5938 5937 5935 5933 5932 5930 5928 5926
5866 5869 5871 5874 5876 5879 5880 5882 5884 5886 5888 5890 5891 5892 5893 5894 5895 5896 5897 5898 5900 5901 5902 5904 5905 5907 5908 5909 5911 5913 5914 5916 5918 5920 5921 5922 5924 5926 5928 5930 5930 5930 5931 5932 5932 5933 5933 5934 5934 5934 5934 5935 5935 5936 5936 5936 5937 5936 5937 5937 5937 5937 5937 5938 5939 5939 5939 5939 5939 5939 5939 5939 5938 5937 5936 5935 5934 5933 5932 5930 5928 5927 5925 5923 5922
5862 5864 5867 5870 5872 5874 5876 5878 5879 5882 5884 5886 5887 5888 5890 5891 5892 5893 5894 5895 5896 5898 5899 5900 5902 5903 5905 5906 5907 5909 5910 5912 5915 5916 5917 5919 5920 5922 5924 5926 5927 5927 5928 5929 5929 5930 5930 5931 5931 5931 5931 5931 5932 5932 5933 5933 5934 5934 5934 5934 5934 5934 5934 5935 5935 5935 5935 5936 5935 5936 5936 5935 5934 5934 5933 5931 5930 5929 5928 5926 5924 5923 5921 5919 5917
5858 5861 5863 5866 5868 5870 5871 5873 5875 5878 5880 5882 5883 5885 5886 5887 5888 5890 5891 5892 5893 5895 5896 5897 5898 5900 5901 5902 5904 5905 5907 5909 5911 5912 5913 5915 5917 5919 5921 5922 5923 5924 5925 5925 5926 5927 5927 5927 5927 5928 5928 5928 5928 5929 5930 5930 5930 5930 5930 5930 5930 5931 5931 5931 5931 5931 5932 5932 5932 5932 5932 5931 5931 5930 5929 5927 5927 5926 5924 5922 5921 5919 5918 5916 5914
5853 5856 5858 5861 5863 5865 5866 5869 5872 5874 5876 5878 5880 5881 5882 5884 5885 5886 5887 5888 5890 5891 5892 5893 5895 5896 5898 5899 5900 5902 5903 5905 5907 5909 5910 5912 5914 5915 5917 5918 5919 5920 5921 5922 5922 5923 5923 5924 5924 5925 5925 5925 5925 5926 5926 5926 5927 5927 5927 5927 5927 5927 5927 5927 5927 5928 5928 5928 5928 5928 5928 5927 5927 5927 5925 5923 5923 5922 5921 5919 5917 5916 5914 5912 5910
5848 5851 5853 5856 5858 5860 5862 5865 5868 5870 5872 5874 5876 5877 5879 5880 5881 5882 5884 5885 5886 5888 5889 5890 5891 5893 5894 5896 5897 5898 5900 5902 5904 5906 5907 5909 5910 5911 5913 5914 5915 5916 5917 5918 5918 5919 5920 5921 5922 5922 5922 5922 5922 5922 5922 5922 5923 5923 5923 5923 5923 5923 5923 5923 5923 5924 5924 5924 5924 5924 5924 5923 5923 5923 5921 5920 5919 5918 5917 5915 5913 5912 5910 5909 5907
5842 5845 5848 5850 5852 5854 5857 5860 5863 5865 5867 5869 5872 5873 5875 5876 5877 5879 5880 5881 5882 5884 5885 5886 5888 5889 5891 5892 5894 5895 5896 5898 5901 5903 5904 5905 5906 5907 5909 5910 5911 5913 5914 5914 5915 5916 5917 5918 5919 5919 5919 5919 5919 5919 5918 5918 5918 5918 5918 5919 5919 5918 5919 5919 5920 5920 5920 5920 5920 5920 5920 5919 5919 5918 5918 5916 5916 5915 5913 5911 5909 5908 5907 5905 5903
5837 5839 5842 5844 5846 5849 5852 5855 5858 5860 5863 5865 5867 5869 5870 5872 5874 5875 5876 5877 5878 5880 5881 5883 5884 5886 5887 5889 5890 5892 5894 5896 5897 5899 5900 5901 5902 5904 5905 5907 5908 5909 5911 5911 5912 5913 5914 5915 5915 5916 5916 5916 5915 5915 5915 5914 5914 5914 5914 5914 5915 5915 5915 5916 5916 5916 5916 5916 5916 5915 5915 5914 5914 5913 5912 5911 5911 5910 5908 5906 5905 5904 5903 5901 5899
5831 5833 5836 5838 5841 5844 5848 5850 5853 5856 5858 5861 5863 5865 5867 5868 5869 5871 5872 5873 5874 5876 5877 5879 5881 5882 5884 5885 5887 5889 5891 5893 5894 5896 5898 5899 5900 5901 5902 5904 5905 5906 5907 5908 5909 5910 5911 5912 5912 5912 5912 5912 5912 5912 5911 5911 5911 5910 5910 5910 5911 5911 5911 5912 5912 5912 5912 5912 5911 5910 5910 5909 5908 5907 5906 5905 5904 5903 5902 5901 5900 5899 5898 5896 5894
5825 5828 5830 5833 5836 5840 5843 5846 5848 5851 5854 5856 5859 5861 5862 5864 5865 5867 5868 5869 5870 5872 5874 5876 5877 5878 5880 5882 5884 5886 5888 5890 5891 5893 5895 5897 5897 5898 5899 5901 5902 5903 5904 5904 5905 5907 5907 5908 5908 5908 5908 5908 5908 5908 5908 5908 5908 5907 5907 5907 5907 5907 5907 5908 5908 5907 5907 5907 5906 5905 5904 5903 5901 5900 5899 5897 5897 5897 5896 5896 5895 5893 5892 5891 5889
5820 5822 5825 5828 5831 5834 5837 5840 5843 5846 5849 5851 5854 5856 5858 5859 5861 5863 5863 5865 5866 5868 5870 5872 5873 5875 5877 5879 5882 5884 5885 5887 5888 5890 5892 5893 5895 5895 5896 5897 5898 5900 5900 5901 5902 5903 5904 5904 5905 5905 5905 5904 5905 5905 5904 5904 5904 5905 5904 5903 5904 5903 5903 5903 5904 5902 5902 5901 5900 5898 5897 5896 5894 5891 5889 5888 5888 5889 5890 5890 5889 5888 5887 5885 5883
5816 5818 5820 5822 5825 5828 5831 5834 5837 5840 5843 5846 5849 5851 5853 5855 5857 5858 5860 5861 5862 5864 5866 5868 5870 5872 5874 5876 5879 5881 5882 5884 5885 5887 5888 5890 5892 5892 5893 5894 5895 5896 5897 5898 5899 5900 5900 5900 5901 5901 5901 5901 5900 5900 5900 5900 5900 5901 5900 5900 5900 5899 5898 5898 5897 5896 5896 5895 5893 5891 5890 5888 5885 5883 5882 5880 5880 5881 5883 5884 5883 5883 5882 5880 5878
5813 5814 5815 5817 5818 5821 5824 5827 5830 5834 5837 5840 5843 5846 5848 5850 5852 5853 5855 5857 5858 5860 5862 5865 5867 5869 5871 5873 5875 5877 5879 5881 5882 5883 5885 5887 5888 5889 5890 5890 5891 5893 5894 5895 5895 5896 5896 5897 5897 5897 5897 5897 5896 5896 5896 5896 5896 5896 5896 5896 5895 5894 5894 5893 5892 5890 5889 5887 5886 5885 5885 5883 5882 5882 5881 5880 5879 5879 5879 5878 5878 5877 5876 5875 5872
5803 5804 5805 5808 5810 5813 5816 5820 5823 5827 5831 5834 5837 5840 5842 5844 5846 5849 5851 5853 5855 5857 5859 5861 5864 5866 5868 5870 5872 5874 5875 5877 5879 5880 5882 5883 5884 5885 5886 5887 5888 5889 5890 5891 5891 5892 5892 5892 5892 5892 5892 5893 5892 5892 5892 5892 5891 5891 5891 5890 5889 5888 5888 5888 5886 5884 5882 5881 5880 5881 5882 5881 5881 5882 5881 5879 5879 5878 5876 5874 5872 5871 5871 5870 5867
5795 5794 5793 5795 5798 5803 5807 5812 5816 5820 5824 5827 5830 5834 5837 5839 5841 5844 5847 5849 5851 5853 5856 5858 5861 5863 5865 5867 5869 5870 5872 5873 5875 5876 5878 5879 5880 5882 5883 5884 5884 5885 5886 5886 5886 5887 5887 5888 5888 5888 5887 5888 5888 5888 5887 5886 5886 5885 5884 5884 5884 5882 5882 5881 5879 5877 5877 5877 5877 5877 5877 5876 5876 5876 5875 5874 5874 5873 5871 5869 5868 5866 5865 5864 5862
5793 5795 5793 5791 5791 5794 5799 5804 5809 5812 5816 5820 5823 5826 5830 5833 5836 5839 5842 5844 5847 5850 5853 5855 5857 5859 5861 5863 5865 5866 5868 5869 5871 5872 5873 5875 5876 5877 5878 5879 5879 5880 5881 5881 5882 5882 5883 5883 5883 5882 5882 5882 5882 5882 5882 5881 5880 5880 5879 5878 5877 5875 5874 5875 5874 5873 5873 5872 5872 5873 5872 5871 5869 5869 5868 5867 5867 5867 5865 5864 5863 5861 5860 5859 5857
5790 5795 5796 5795 5792 5790 5791 5795 5800 5805 5809 5812 5815 5819 5823 5827 5831 5834 5837 5840 5843 5846 5850 5852 5853 5854 5857 5859 5860 5862 5863 5864 5866 5867 5869 5870 5871 5872 5872 5873 5874 5875 5876 5877 5877 5877 5877 5877 5877 5877 5877 5877 5877 5876 5876 5875 5874 5873 5873 5872 5871 5868 5867 5868 5869 5869 5867 5866 5866 5867 5865 5863 5861 5861 5861 5860 5860 5860 5859 5858 5857 5857 5855 5853 5851
5788 5792 5795 5796 5793 5790 5787 5787 5791 5797 5803 5807 5809 5813 5818 5821 5825 5829 5832 5836 5839 5843 5846 5848 5849 5850 5853 5854 5855 5856 5857 5859 5861 5862 5863 5864 5865 5866 5866 5868 5869 5870 5871 5872 5872 5872 5871 5871 5871 5871 5871 5871 5871 5870 5870 5868 5866 5865 5866 5866 5865 5862 5861 5862 5864 5863 5862 5861 5861 5862 5860 5857 5856 5857 5857 5855 5855 5855 5853 5852 5852 5851 5849 5847 5845
5785 5787 5790 5793 5793 5790 5787 5785 5785 5789 5795 5800 5804 5808 5812 5816 5819 5823 5828 5832 5836 5839 5841 5843 5845 5847 5848 5848 5848 5849 5851 5853 5855 5857 5858 5859 5859 5859 5860 5862 5864 5864 5865 5865 5866 5866 5865 5865 5865 5865 5866 5865 5865 5864 5863 5861 5860 5858 5858 5859 5858 5856 5856 5858 5860 5859 5857 5856 5856 5856 5855 5853 5853 5853 5852 5851 5850 5849 5847 5846 5845 5843 5842 5840 5838
5779 5780 5782 5786 5789 5790 5789 5788 5785 5785 5790 5796 5801 5806 5809 5812 5815 5819 5823 5827 5831 5835 5837 5839 5841 5842 5842 5840 5841 5843 5846 5848 5850 5851 5852 5853 5853 5854 5855 5856 5857 5858 5858 5859 5859 5859 5859 5859 5859 5859 5859 5859 5858 5857 5856 5855 5855 5854 5852 5852 5852 5851 5851 5854 5856 5855 5852 5850 5850 5849 5848 5847 5847 5846 5845 5845 5844 5843 5841 5839 5838 5836 5834 5833 5831
5772 5775 5776 5780 5784 5789 5791 5790 5787 5786 5790 5796 5800 5803 5806 5808 5811 5815 5819 5823 5827 5830 5832 5834 5834 5835 5834 5834 5836 5838 5840 5842 5844 5845 5845 5846 5847 5848 5849 5850 5851 5851 5851 5852 5852 5852 5853 5853 5853 5853 5852 5852 5852 5851 5850 5849 5849 5848 5848 5847 5846 5844 5844 5846 5848 5848 5847 5846 5845 5844 5842 5841 5841 5840 5839 5838 5837 5836 5835 5833 5831 5829 5827 5826 5824
5766 5769 5772 5776 5780 5785 5789 5789 5786 5786 5790 5794 5797 5800 5802 5805 5807 5811 5815 5819 5822 5823 5825 5826 5827 5828 5829 5830 5831 5833 5835 5837 5837 5838 5838 5839 5840 5841 5842 5843 5843 5844 5844 5844 5844 5845 5845 5846 5846 5846 5846 5846 5846 5845 5845 5844 5843 5842 5842 5842 5840 5838 5837 5838 5839 5840 5841 5841 5839 5838 5837 5836 5835 5834 5833 5832 5831 5829 5828 5826 5824 5822 5821 5819 5817
5760 5761 5765 5771 5776 5779 5782 5782 5782 5784 5788 5790 5793 5796 5798 5801 5803 5806 5810 5813 5815 5817 5818 5820 5822 5823 5824 5825 5827 5829 5830 5830 5831 5831 5832 5833 5834 5834 5835 5835 5836 5836 5837 5837 5837 5837 5838 5839 5839 5839 5839 5839 5840 5840 5840 5840 5838 5838 5837 5836 5834 5832 5833 5833 5833 5833 5834 5833 5831 5830 5829 5828 5828 5827 5825 5824 5823 5822 5820 5818 5817 5815 5814 5812 5810
5756 5756 5758 5764 5770 5774 5776 5777 5777 5780 5784 5787 5789 5792 5794 5796 5799 5802 5804 5806 5808 5810 5812 5814 5815 5817 5819 5821 5822 5824 5824 5824 5825 5825 5826 5827 5827 5827 5827 5828 5829 5830 5831 5831 5831 5831 5831 5832 5833 5833 5833 5834 5834 5834 5834 5834 5833 5833 5832 5831 5828 5828 5828 5828 5827 5826 5826 5825 5823 5822 5821 5821 5820 5819 5817 5817 5816 5814 5812 5811 5809 5808 5807 5805 5803
5752 5752 5753 5757 5761 5764 5768 5770 5773 5775 5779 5782 5784 5786 5789 5791 5793 5796 5798 5800 5802 5804 5806 5808 5810 5813 5814 5816 5817 5818 5819 5819 5819 5819 5820 5820 5821 5821 5822 5823 5824 5825 5825 5825 5825 5825 5825 5826 5827 5827 5828 5828 5828 5828 5828 5828 5828 5827 5827 5825 5824 5823 5822 5821 5820 5819 5819 5817 5816 5815 5814 5813 5811 5810 5809 5809 5808 5806 5805 5803 5802 5801 5799 5798 5796
5747 5748 5749 5752 5754 5755 5757 5761 5765 5769 5773 5775 5778 5781 5783 5786 5788 5790 5792 5794 5796 5798 5800 5802 5805 5807 5808 5810 5811 5812 5812 5813 5813 5814 5814 5815 5815 5816 5817 5818 5819 5819 5819 5819 5819 5819 5820 5821 5821 5822 5822 5822 5822 5822 5822 5821 5821 5821 5820 5819 5818 5817 5816 5815 5813 5812 5812 5810 5809 5808 5807 5806 5804 5803 5802 5802 5800 5799 5797 5796 5794 5793 5791 5789 5787
5741 5743 5744 5747 5749 5751 5753 5756 5760 5764 5767 5770 5773 5775 5778 5780 5783 5784 5786 5788 5790 5792 5794 5796 5798 5800 5802 5803 5804 5805 5806 5807 5807 5808 5808 5809 5809 5810 5811 5811 5812 5813 5813 5813 5814 5814 5814 5815 5815 5815 5815 5815 5815 5815 5815 5814 5814 5813 5813 5812 5811 5810 5809 5808 5806 5805 5804 5804 5802 5801 5800 5799 5798 5796 5796 5795 5793 5791 5790 5788 5786 5784 5783 5780 5778
5735 5737 5740 5742 5744 5747 5750 5753 5755 5758 5761 5764 5767 5770 5773 5775 5777 5779 5780 5782 5785 5786 5788 5790 5792 5794 5795 5797 5798 5799 5800 5800 5801 5802 5802 5803 5803 5804 5804 5805 5806 5806 5807 5807 5808 5808 5808 5808 5809 5808 5808 5808 5808 5808 5808 5807 5807 5806 5806 5805 5804 5803 5802 5801 5799 5798 5797 5796 5795 5794 5793 5791 5790 5789 5788 5786 5785 5783 5782 5780 5778 5776 5774 5772 5770
5729 5732 5735 5737 5740 5742 5745 5748 5751 5753 5756 5758 5761 5764 5767 5769 5771 5772 5774 5776 5778 5780 5782 5784 5786 5787 5788 5790 5791 5792 5793 5794 5795 5796 5796 5797 5797 5798 5799 5799 5800 5800 5800 5801 5801 5801 5801 5802 5802 5802 5801 5801 5801 5801 5800 5800 5799 5799 5798 5797 5796 5795 5794 5793 5791 5790 5790 5788 5787 5786 5785 5784 5782 5781 5780 5778 5777 5775 5773 5771 5769 5767 5765 5763 5761
5725 5727 5729 5731 5734 5737 5740 5743 5746 5748 5750 5752 5755 5758 5761 5763 5765 5766 5767 5769 5771 5773 5775 5777 5779 5780 5782 5783 5784 5785 5786 5787 5788 5789 5790 5791 5791 5792 5793 5793 5793 5794 5794 5794 5794 5794 5794 5794 5794 5794 5794 5794 5793 5793 5793 5792 5792 5791 5790 5789 5788 5787 5786 5785 5784 5783 5782 5781 5780 5779 5778 5776 5775 5773 5772 5770 5768 5766 5764 5762 5760 5758 5756 5754 5752